Volver al catálogo

DELTA 1 DEB

ActivoSSO
NORAD 42638·DEBRIS·🇺🇸 United States

Lanzado Jun 12, 1975 desde Vandenberg Space Force Base

Loading…

Próximos Pases (próximas 24 horas)

TLE

EnvejeciendoSource: Space-Track

Época: Sep 3, 2026, 12:50 UTC

1 42638U 75052LX  26246.53518126  .00001008  00000-0  12685-2 0  9996
2 42638  99.7378   1.4033 0043903 202.8244 157.0948 13.66182672589480

Sigue DELTA 1 DEB en tiempo real con AllMySat

Download on the App Store